Las Vegas, NV

1:49 PM PST on January 17, 2017 (GMT -0800)
McCarran International

Weather History for KLAS - November, 2012

Change the Weather History Date:

Wednesday, November 14, 2012

  Actual Average Record
Temperature  
Mean Temperature 54 °F 57 °F  
Max Temperature 66 °F 67 °F 81 °F (1995)
Min Temperature 42 °F 47 °F 22 °F (1938)
Degree Days  
Heating Degree Days 11 8  
Month to date heating degree days 83 82  
Since 1 July heating degree days 102 121  
Cooling Degree Days 0 0  
Month to date cooling degree days 27 10  
Year to date cooling degree days 4031 3566  
Growing Degree Days 4 (Base 50)    
Moisture  
Dew Point 19 °F    
Average Humidity 27    
Maximum Humidity 39    
Minimum Humidity 15    
Precipitation  
Precipitation 0.00 in 0.01 in 0.23 in (1965)
Month to date precipitation T 0.16  
Year to date precipitation 4.82 3.49  
Snow  
Snow 0.00 in 0.00 in 0.00 in ()
Month to date snowfall 0.0 0.0  
Since 1 July snowfall T 0.0  
Since 1 September snowfall T 0.0  
Snow Depth 0.00 in    
Sea Level Pressure  
Sea Level Pressure 30.11 in    
Wind  
Wind Speed 6 mph (SSW)    
Max Wind Speed 13 mph    
Max Gust Speed 13 mph    
Visibility 10 miles    
Events      
T = Trace of Precipitation, MM = Missing Value Source: NWS Daily Summary

Daily Weather History Graph

Daily Weather History Graph

Search for Another Location

Airport or City:

Trip Planner

Search our weather history database for the weather conditions in past years. The results will help you decide how hot, cold, wet, or windy it might be!

Date:

Astronomy

Nov. 14, 2012 Rise Set
Actual Time 6:16 AM PST 4:33 PM PST
Civil Twilight 5:49 AM PST 5:00 PM PST
Nautical Twilight 5:18 AM PST 5:31 PM PST
Astronomical Twilight 4:48 AM PST 6:01 PM PST
Moon 7:09 AM PST (11/14) 5:27 PM PST (11/14)
Length of Visible Light 11h 10m
Length of Day
10h 16m
New Moon, 1% of the Moon is Illuminated
Nov 14
New Moon
Nov 20
First Quarter
Nov 28
Full
Dec 6
Last Quarter
Dec 13
New

Hourly Weather History & Observations

Time (PST) Temp. Windchill Dew Point Humidity Pressure Visibility Wind Dir Wind Speed Gust Speed Precip Events Conditions
12:56 AM 45.0 °F 41.8 °F 19.0 °F 36% 30.13 in 10.0 mi SSW 5.8 mph - N/A   Clear
1:56 AM 46.9 °F - 19.0 °F 33% 30.13 in 10.0 mi SW 6.9 mph - N/A   Clear
2:56 AM 44.1 °F 39.5 °F 19.0 °F 37% 30.12 in 10.0 mi SSW 8.1 mph - N/A   Clear
3:56 AM 44.1 °F 39.5 °F 18.0 °F 35% 30.13 in 10.0 mi SSW 8.1 mph - N/A   Clear
4:56 AM 43.0 °F 37.7 °F 19.0 °F 38% 30.14 in 10.0 mi SSW 9.2 mph - N/A   Clear
5:56 AM 42.8 °F 38.0 °F 19.4 °F 39% 30.15 in 10.0 mi SSW 8.1 mph - N/A   Clear
6:56 AM 46.0 °F 41.9 °F 18.0 °F 33% 30.16 in 10.0 mi SSW 8.1 mph - N/A   Partly Cloudy
7:56 AM 50.0 °F - 19.0 °F 29% 30.18 in 10.0 mi South 5.8 mph - N/A   Partly Cloudy
8:56 AM 55.9 °F - 19.0 °F 24% 30.17 in 10.0 mi SSW 3.5 mph - N/A   Partly Cloudy
9:56 AM 59.0 °F - 16.0 °F 19% 30.17 in 10.0 mi South 3.5 mph - N/A   Scattered Clouds
10:56 AM 61.0 °F - 14.0 °F 16% 30.15 in 10.0 mi South 3.5 mph - N/A   Scattered Clouds
11:56 AM 63.0 °F - 15.1 °F 16% 30.11 in 10.0 mi SSE 4.6 mph - N/A   Scattered Clouds
12:56 PM 64.0 °F - 16.0 °F 16% 30.09 in 10.0 mi SSW 3.5 mph - N/A   Mostly Cloudy
1:56 PM 64.0 °F - 15.1 °F 15% 30.06 in 10.0 mi South 4.6 mph - N/A   Mostly Cloudy
2:56 PM 64.9 °F - 17.1 °F 16% 30.06 in 10.0 mi South 4.6 mph - N/A   Mostly Cloudy
3:56 PM 64.0 °F - 17.1 °F 16% 30.06 in 10.0 mi SSW 6.9 mph - N/A   Mostly Cloudy
4:56 PM 62.1 °F - 19.0 °F 19% 30.06 in 10.0 mi South 6.9 mph - N/A   Mostly Cloudy
5:56 PM 60.1 °F - 19.9 °F 21% 30.07 in 10.0 mi SSW 8.1 mph - N/A   Mostly Cloudy
6:56 PM 57.0 °F - 23.0 °F 27% 30.08 in 10.0 mi SW 6.9 mph - N/A   Mostly Cloudy
7:56 PM 53.1 °F - 21.0 °F 29% 30.08 in 10.0 mi SSW 9.2 mph - N/A   Mostly Cloudy
8:56 PM 52.0 °F - 21.0 °F 30% 30.08 in 10.0 mi SSW 5.8 mph - N/A   Mostly Cloudy
9:56 PM 52.0 °F - 19.9 °F 28% 30.08 in 10.0 mi SSW 6.9 mph - N/A   Mostly Cloudy
10:56 PM 51.1 °F - 21.9 °F 32% 30.09 in 10.0 mi SSW 8.1 mph - N/A   Mostly Cloudy
11:56 PM 50.0 °F - 21.9 °F 33% 30.07 in 10.0 mi SSW 6.9 mph - N/A   Mostly Cloudy